Location: �clusier
(49.9361°N, 2.7869°E)
Time: 16:33:34
(UTC+00:00)

Cosmos 1943 Rocket - Visible Passes

Search period start: 27 October 2021 00:00
Search period end: 06 November 2021 00:00
Orbit: 810 x 845 km, 71.0° (Epoch: 27 October)

Date Brightness Start Highest point End Pass type
(mag) Time Alt. Az. Time Alt. Az. Time Alt. Az.
27 Oct 4.3 17:47:48 10° N 17:49:08 11° NNE 17:50:29 10° NNE visible
27 Oct 3.7 19:30:00 10° NNW 19:33:02 24° NNE 19:33:02 24° NNE visible
27 Oct 4.7 21:13:31 10° NNW 21:14:33 16° NW 21:14:33 16° NW visible
28 Oct 4.3 17:28:59 10° N 17:29:43 10° NNE 17:30:28 10° NNE visible
28 Oct 3.6 19:10:49 10° NNW 19:14:16 25° NNE 19:14:16 25° NNE visible
28 Oct 4.5 20:54:16 10° NNW 20:55:48 19° NW 20:55:48 19° NW visible
29 Oct 3.5 18:51:38 10° NNW 18:55:32 24° NNE 18:55:32 24° NNE visible
29 Oct 4.2 20:35:01 10° NNW 20:37:03 23° NNW 20:37:03 23° NNW visible
30 Oct 3.5 18:32:29 10° NNW 18:36:50 23° NE 18:36:50 23° NE visible
30 Oct 3.9 20:15:46 10° NNW 20:18:21 28° NNW 20:18:21 28° NNW visible
31 Oct 3.5 18:13:19 10° N 18:17:37 21° NE 18:18:10 21° NE visible
31 Oct 3.5 19:56:33 10° NNW 19:59:41 34° NNW 19:59:41 34° NNW visible
01 Nov 3.6 17:54:09 10° N 17:58:16 20° NE 17:59:32 19° NE visible
01 Nov 3.1 19:37:19 10° NNW 19:41:04 42° NNW 19:41:04 42° NNW visible
01 Nov 5.0 21:22:06 10° NW 21:22:36 12° WNW 21:22:36 12° WNW visible
02 Nov 3.7 17:35:00 10° N 17:38:55 19° NE 17:40:58 16° ENE visible
02 Nov 2.6 19:18:05 10° NNW 19:22:30 52° N 19:22:30 52° N visible
02 Nov 4.8 21:02:40 10° NW 21:04:02 15° WNW 21:04:02 15° WNW visible
03 Nov 3.8 17:15:51 10° N 17:19:34 17° NNE 17:22:27 12° ENE visible
03 Nov 2.3 18:58:53 10° NNW 19:04:00 59° NNE 19:04:00 59° NNE visible
03 Nov 4.5 20:43:16 10° NW 20:45:32 20° WNW 20:45:32 20° WNW visible
04 Nov 3.8 16:56:42 10° N 17:00:11 16° NNE 17:03:39 10° ENE visible
04 Nov 2.2 18:39:40 10° NNW 18:45:16 55° NE 18:45:35 55° ENE visible
04 Nov 4.1 20:23:55 10° NW 20:27:08 25° WNW 20:27:08 25° WNW visible
05 Nov 2.4 18:20:28 10° NNW 18:26:00 50° NE 18:27:16 42° E visible
05 Nov 3.7 20:04:35 10° NW 20:08:49 31° W 20:08:49 31° W visible
